TimeCST,TemperatureF,Dew PointF,Humidity,Sea Level PressureIn,VisibilityMPH,Wind Direction,Wind SpeedMPH,Gust SpeedMPH,PrecipitationIn,Events,Conditions,WindDirDegrees,DateUTC
12:15 AM,53.2,37.9,56,29.82,10.0,South,13.8,-,N/A,,Overcast,170,2013-11-04 06:15:00
12:35 AM,53.1,38.5,58,29.81,10.0,SSE,15.0,18.4,N/A,,Overcast,160,2013-11-04 06:35:00
12:55 AM,52.7,39.0,60,29.81,10.0,South,15.0,-,N/A,,Scattered Clouds,170,2013-11-04 06:55:00
1:15 AM,52.9,38.8,59,29.81,10.0,South,15.0,20.7,N/A,,Scattered Clouds,170,2013-11-04 07:15:00
1:35 AM,52.9,39.2,60,29.81,10.0,South,11.5,-,N/A,,Scattered Clouds,170,2013-11-04 07:35:00
1:55 AM,52.5,39.2,61,29.81,10.0,South,13.8,-,N/A,,Scattered Clouds,170,2013-11-04 07:55:00
2:15 AM,52.0,39.2,62,29.81,10.0,South,13.8,-,N/A,,Clear,180,2013-11-04 08:15:00
2:35 AM,52.2,39.4,62,29.81,10.0,South,15.0,-,N/A,,Clear,170,2013-11-04 08:35:00
2:55 AM,52.2,39.6,62,29.80,10.0,South,16.1,-,N/A,,Clear,180,2013-11-04 08:55:00
3:15 AM,52.3,39.7,62,29.81,10.0,South,11.5,-,N/A,,Scattered Clouds,180,2013-11-04 09:15:00
3:35 AM,52.5,40.1,63,29.81,10.0,South,12.7,-,N/A,,Scattered Clouds,180,2013-11-04 09:35:00
3:55 AM,52.2,40.3,64,29.81,10.0,South,11.5,-,N/A,,Mostly Cloudy,180,2013-11-04 09:55:00
4:15 AM,51.6,40.3,65,29.81,10.0,South,12.7,-,N/A,,Overcast,170,2013-11-04 10:15:00
4:35 AM,51.1,40.6,67,29.81,10.0,South,12.7,-,N/A,,Mostly Cloudy,170,2013-11-04 10:35:00
4:55 AM,51.8,41.0,67,29.81,10.0,South,13.8,18.4,N/A,,Mostly Cloudy,180,2013-11-04 10:55:00
5:15 AM,51.3,41.2,68,29.82,10.0,South,11.5,-,N/A,,Mostly Cloudy,180,2013-11-04 11:15:00
5:35 AM,51.4,41.4,68,29.81,10.0,South,15.0,-,N/A,,Scattered Clouds,180,2013-11-04 11:35:00
5:55 AM,50.5,41.4,71,29.81,10.0,South,13.8,19.6,N/A,,Clear,180,2013-11-04 11:55:00
6:15 AM,50.0,41.4,72,29.82,10.0,South,15.0,20.7,N/A,,Clear,180,2013-11-04 12:15:00
6:35 AM,50.2,41.7,73,29.83,10.0,South,12.7,23.0,N/A,,Clear,180,2013-11-04 12:35:00
6:55 AM,49.6,41.7,74,29.83,10.0,South,12.7,-,N/A,,Clear,180,2013-11-04 12:55:00
7:15 AM,49.1,41.9,76,29.84,10.0,South,12.7,-,N/A,,Clear,180,2013-11-04 13:15:00
7:35 AM,49.1,42.1,77,29.84,10.0,South,11.5,-,N/A,,Mostly Cloudy,170,2013-11-04 13:35:00
7:55 AM,49.8,42.8,77,29.85,10.0,South,11.5,-,N/A,,Mostly Cloudy,170,2013-11-04 13:55:00
8:15 AM,50.4,42.8,75,29.86,10.0,South,12.7,-,N/A,,Mostly Cloudy,180,2013-11-04 14:15:00
8:35 AM,50.7,42.8,74,29.87,10.0,South,11.5,16.1,N/A,,Mostly Cloudy,190,2013-11-04 14:35:00
8:55 AM,51.3,42.8,73,29.88,10.0,South,13.8,-,N/A,,Overcast,190,2013-11-04 14:55:00
9:15 AM,51.8,42.8,71,29.89,10.0,South,13.8,-,N/A,,Overcast,190,2013-11-04 15:15:00
9:35 AM,52.3,43.0,70,29.90,10.0,SSW,11.5,-,N/A,,Overcast,200,2013-11-04 15:35:00
9:55 AM,52.7,43.0,70,29.91,10.0,SW,8.1,-,N/A,,Overcast,220,2013-11-04 15:55:00
10:15 AM,53.4,43.3,69,29.92,10.0,SW,9.2,-,N/A,,Overcast,230,2013-11-04 16:15:00
10:35 AM,54.7,43.9,67,29.92,10.0,SW,11.5,-,N/A,,Overcast,230,2013-11-04 16:35:00
10:55 AM,55.6,43.7,64,29.93,10.0,WSW,10.4,-,N/A,,Overcast,250,2013-11-04 16:55:00
11:15 AM,55.4,43.5,64,29.94,10.0,West,16.1,-,N/A,,Overcast,280,2013-11-04 17:15:00
11:35 AM,55.8,43.7,64,29.95,10.0,West,13.8,-,N/A,,Overcast,270,2013-11-04 17:35:00
11:55 AM,56.7,43.7,62,29.95,10.0,West,10.4,-,N/A,,Overcast,280,2013-11-04 17:55:00
12:15 PM,57.6,43.3,59,29.95,10.0,WNW,10.4,17.3,N/A,,Mostly Cloudy,290,2013-11-04 18:15:00
12:35 PM,57.2,42.3,57,29.95,10.0,West,9.2,-,N/A,,Scattered Clouds,280,2013-11-04 18:35:00
12:55 PM,58.3,42.1,55,29.96,10.0,NW,5.8,-,N/A,,Scattered Clouds,310,2013-11-04 18:55:00
1:15 PM,57.2,41.9,57,29.96,10.0,NNW,10.4,-,N/A,,Mostly Cloudy,330,2013-11-04 19:15:00
1:35 PM,58.3,41.4,53,29.96,10.0,North,9.2,-,N/A,,Scattered Clouds,350,2013-11-04 19:35:00
1:55 PM,59.0,41.0,51,29.97,10.0,North,9.2,-,N/A,,Scattered Clouds,350,2013-11-04 19:55:00
2:15 PM,58.1,39.9,51,29.97,10.0,NNW,12.7,17.3,N/A,,Clear,340,2013-11-04 20:15:00
2:35 PM,58.1,38.5,48,29.99,10.0,North,11.5,16.1,N/A,,Clear,360,2013-11-04 20:35:00
2:55 PM,57.4,37.6,48,29.99,10.0,North,9.2,-,N/A,,Clear,360,2013-11-04 20:55:00
3:15 PM,57.2,38.5,50,29.99,10.0,NNE,11.5,-,N/A,,Clear,30,2013-11-04 21:15:00
3:35 PM,56.5,37.6,49,30.00,10.0,NNE,12.7,-,N/A,,Clear,30,2013-11-04 21:35:00
3:55 PM,55.8,36.9,49,30.01,10.0,NNE,9.2,-,N/A,,Clear,20,2013-11-04 21:55:00
4:15 PM,55.0,36.9,50,30.02,10.0,NNE,10.4,-,N/A,,Clear,30,2013-11-04 22:15:00
4:35 PM,54.0,37.0,53,30.03,10.0,North,9.2,-,N/A,,Clear,10,2013-11-04 22:35:00
4:55 PM,52.2,36.9,56,30.04,10.0,North,6.9,-,N/A,,Clear,360,2013-11-04 22:55:00
5:15 PM,50.5,36.7,59,30.04,10.0,North,6.9,-,N/A,,Clear,360,2013-11-04 23:15:00
5:35 PM,48.9,36.5,62,30.05,10.0,North,6.9,-,N/A,,Clear,350,2013-11-04 23:35:00
5:55 PM,47.8,36.5,65,30.05,10.0,North,6.9,-,N/A,,Clear,360,2013-11-04 23:55:00
6:15 PM,47.5,36.5,66,30.07,10.0,North,5.8,-,N/A,,Clear,10,2013-11-05 00:15:00
6:35 PM,45.5,35.6,68,30.07,10.0,NE,4.6,-,N/A,,Clear,40,2013-11-05 00:35:00
6:55 PM,46.9,36.5,67,30.09,10.0,NNE,4.6,-,N/A,,Clear,20,2013-11-05 00:55:00
7:15 PM,43.3,35.8,75,30.09,10.0,NE,4.6,-,N/A,,Clear,40,2013-11-05 01:15:00
7:35 PM,45.3,36.5,71,30.10,10.0,NE,3.5,-,N/A,,Scattered Clouds,50,2013-11-05 01:35:00
7:55 PM,44.6,36.0,72,30.10,10.0,NE,3.5,-,N/A,,Scattered Clouds,40,2013-11-05 01:55:00
8:15 PM,44.6,36.3,73,30.10,10.0,NE,4.6,-,N/A,,Scattered Clouds,40,2013-11-05 02:15:00
8:35 PM,44.4,36.5,74,30.11,10.0,NE,3.5,-,N/A,,Mostly Cloudy,50,2013-11-05 02:35:00
8:55 PM,43.9,36.5,75,30.11,10.0,NE,4.6,-,N/A,,Mostly Cloudy,40,2013-11-05 02:55:00
9:15 PM,45.0,36.5,72,30.12,10.0,NE,4.6,-,N/A,,Mostly Cloudy,40,2013-11-05 03:15:00
9:35 PM,44.6,36.7,74,30.12,10.0,NNE,3.5,-,N/A,,Overcast,30,2013-11-05 03:35:00
9:55 PM,43.9,36.9,76,30.13,10.0,North,4.6,-,N/A,,Mostly Cloudy,10,2013-11-05 03:55:00
10:15 PM,44.6,37.8,77,30.13,10.0,NE,4.6,-,N/A,,Mostly Cloudy,40,2013-11-05 04:15:00
10:35 PM,45.0,39.0,80,30.12,10.0,NE,3.5,-,N/A,,Overcast,40,2013-11-05 04:35:00
10:55 PM,45.3,39.0,79,30.12,10.0,NE,4.6,-,N/A,,Overcast,40,2013-11-05 04:55:00
11:15 PM,43.7,38.3,81,30.12,10.0,NE,5.8,-,N/A,,Mostly Cloudy,50,2013-11-05 05:15:00
11:35 PM,44.8,39.2,81,30.12,10.0,NE,4.6,-,N/A,,Overcast,40,2013-11-05 05:35:00
11:55 PM,45.5,39.6,80,30.12,10.0,NNE,3.5,-,N/A,,Overcast,30,2013-11-05 05:55:00